| time (UTC) | temp F | wind direction | speed MPH | gust MPH | rain 1hr in | rain 24hr in | rain mn in | humidity % | barometer mb |
| 20260507075609 | 61 | 191 | 1.0 | 3.0 | 0.00 | 0.00 | 0.00 | 68 | 1005.2 |
| 20260507074617 | 61 | 202 | 0.0 | 3.0 | 0.00 | 0.00 | 0.00 | 69 | 1005.3 |
| 20260507073519 | 61 | 266 | 1.0 | 3.0 | 0.00 | 0.00 | 0.00 | 66 | 1005.2 |
| 20260507072527 | 61 | 225 | 1.0 | 3.0 | 0.00 | 0.00 | 0.00 | 66 | 1005.1 |
| 20260507071535 | 60 | 202 | 3.0 | 8.0 | 0.00 | 0.00 | 0.00 | 67 | 1005.0 |
| 20260507070543 | 59 | 207 | 1.0 | 4.0 | 0.00 | 0.00 | 0.00 | 73 | 1004.7 |
| 20260507065551 | 59 | 225 | 0.0 | 1.0 | 0.00 | 0.00 | 0.00 | 73 | 1004.8 |
| 20260507064559 | 59 | 270 | 0.0 | 1.0 | 0.00 | 0.00 | 0.00 | 75 | 1004.7 |
| 20260507063607 | 58 | 211 | 0.0 | 1.0 | 0.00 | 0.00 | 0.00 | 77 | 1004.7 |
| 20260507062615 | 57 | 227 | 1.0 | 3.0 | 0.00 | 0.00 | 0.00 | 79 | 1004.6 |
| 20260507061517 | 56 | 200 | 1.0 | 3.0 | 0.00 | 0.00 | 0.00 | 81 | 1004.7 |
| 20260507060525 | 56 | 0.0 | 0.0 | 0.00 | 0.00 | 0.00 | 81 | 1004.5 | |
| 20260507054541 | 55 | 0.0 | 0.0 | 0.00 | 0.00 | 0.00 | 81 | 1004.5 | |
| 20260507053549 | 55 | 180 | 0.0 | 1.0 | 0.00 | 0.00 | 0.00 | 81 | 1004.4 |
| 20260507052557 | 55 | 0.0 | 1.0 | 0.00 | 0.00 | 0.00 | 80 | 1004.3 | |
| 20260507051604 | 55 | 270 | 0.0 | 0.0 | 0.00 | 0.00 | 0.00 | 80 | 1004.2 |
| 20260507050612 | 54 | 225 | 2.0 | 3.0 | 0.00 | 0.00 | 0.00 | 80 | 1004.0 |
| 20260507045620 | 54 | 239 | 0.0 | 1.0 | 0.00 | 0.00 | 0.00 | 80 | 1004.1 |
| 20260507044522 | 54 | 241 | 1.0 | 2.0 | 0.00 | 0.00 | 0.00 | 80 | 1003.9 |
| 20260507043530 | 54 | 225 | 2.0 | 3.0 | 0.00 | 0.00 | 0.00 | 80 | 1003.8 |
| 20260507042538 | 54 | 245 | 2.0 | 5.0 | 0.00 | 0.00 | 0.00 | 80 | 1003.7 |
| 20260507041546 | 54 | 235 | 2.0 | 4.0 | 0.00 | 0.00 | 0.00 | 83 | 1003.6 |
| 20260507040554 | 54 | 0.0 | 0.0 | 0.00 | 0.00 | 0.00 | 83 | 1003.6 | |
| 20260507035602 | 53 | 199 | 2.0 | 3.0 | 0.00 | 0.00 | 0.00 | 82 | 1003.6 |
| 20260507034610 | 53 | 250 | 1.0 | 2.0 | 0.00 | 0.00 | 0.00 | 82 | 1003.7 |
| 20260507033618 | 53 | 275 | 1.0 | 2.0 | 0.00 | 0.00 | 0.00 | 82 | 1003.7 |
| 20260507032520 | 54 | 270 | 0.0 | 1.0 | 0.00 | 0.00 | 0.00 | 81 | 1003.6 |
| 20260507031528 | 54 | 229 | 1.0 | 2.0 | 0.00 | 0.00 | 0.00 | 79 | 1003.5 |
| 20260507030536 | 54 | 225 | 2.0 | 3.0 | 0.00 | 0.00 | 0.00 | 77 | 1003.5 |
| 20260507025544 | 55 | 212 | 1.0 | 3.0 | 0.00 | 0.00 | 0.00 | 76 | 1003.5 |
| 20260507024552 | 55 | 180 | 0.0 | 1.0 | 0.00 | 0.00 | 0.00 | 75 | 1003.5 |
| 20260507023600 | 55 | 203 | 1.0 | 2.0 | 0.00 | 0.00 | 0.00 | 74 | 1003.6 |
| 20260507022608 | 56 | 180 | 0.0 | 1.0 | 0.00 | 0.00 | 0.00 | 73 | 1003.5 |
| 20260507021616 | 56 | 225 | 0.0 | 1.0 | 0.00 | 0.00 | 0.00 | 72 | 1003.5 |
| 20260507020518 | 58 | 180 | 0.0 | 1.0 | 0.00 | 0.00 | 0.00 | 71 | 1003.5 |
| 20260507015526 | 58 | 0.0 | 0.0 | 0.00 | 0.00 | 0.00 | 70 | 1003.4 | |
| 20260507014534 | 59 | 0.0 | 0.0 | 0.00 | 0.00 | 0.00 | 66 | 1003.4 | |
| 20260507013541 | 60 | 218 | 1.0 | 5.0 | 0.00 | 0.00 | 0.00 | 64 | 1003.2 |
| 20260507012549 | 60 | 176 | 5.0 | 9.0 | 0.00 | 0.00 | 0.00 | 64 | 1003.1 |
| 20260507011558 | 60 | 185 | 5.0 | 7.0 | 0.00 | 0.00 | 0.00 | 64 | 1003.1 |
| 20260507010606 | 61 | 186 | 5.0 | 9.0 | 0.00 | 0.00 | 0.00 | 64 | 1003.1 |
| 20260507005613 | 61 | 180 | 4.0 | 7.0 | 0.00 | 0.00 | 0.00 | 63 | 1003.2 |
| 20260507004516 | 61 | 180 | 5.0 | 8.0 | 0.00 | 0.00 | 0.00 | 63 | 1003.2 |
| 20260507003524 | 61 | 194 | 4.0 | 10.0 | 0.00 | 0.00 | 0.00 | 63 | 1003.2 |
| 20260507002532 | 61 | 180 | 6.0 | 10.0 | 0.00 | 0.00 | 0.00 | 63 | 1003.2 |
| 20260507001540 | 61 | 175 | 5.0 | 9.0 | 0.00 | 0.00 | 0.00 | 63 | 1003.2 |
| 20260507000548 | 60 | 180 | 4.0 | 6.0 | 0.00 | 0.00 | 0.00 | 65 | 1003.4 |
| 20260506235556 | 61 | 180 | 5.0 | 9.0 | 0.00 | 0.00 | 0.00 | 64 | 1003.4 |
| 20260506234603 | 60 | 226 | 4.0 | 6.0 | 0.00 | 0.00 | 0.00 | 66 | 1003.4 |
| 20260506233611 | 59 | 183 | 6.0 | 9.0 | 0.00 | 0.00 | 0.00 | 69 | 1003.5 |
| 20260506232619 | 58 | 270 | 3.0 | 6.0 | 0.00 | 0.00 | 0.00 | 71 | 1003.4 |
| 20260506231521 | 57 | 245 | 1.0 | 3.0 | 0.00 | 0.00 | 0.00 | 73 | 1003.4 |
| 20260506230528 | 57 | 256 | 0.0 | 2.0 | 0.00 | 0.00 | 0.00 | 75 | 1003.4 |
| 20260506225536 | 58 | 247 | 0.0 | 0.0 | 0.00 | 0.00 | 0.00 | 74 | 1003.3 |
| 20260506224544 | 58 | 246 | 1.0 | 3.0 | 0.00 | 0.00 | 0.00 | 74 | 1003.2 |
| 20260506223552 | 59 | 226 | 1.0 | 3.0 | 0.00 | 0.00 | 0.00 | 74 | 1003.1 |
| 20260506222600 | 58 | 190 | 3.0 | 5.0 | 0.00 | 0.00 | 0.00 | 76 | 1003.0 |
| 20260506221608 | 58 | 236 | 1.0 | 3.0 | 0.00 | 0.00 | 0.00 | 75 | 1003.2 |
| 20260506220616 | 59 | 225 | 0.0 | 1.0 | 0.00 | 0.00 | 0.00 | 74 | 1003.1 |
| 20260506215518 | 59 | 220 | 1.0 | 3.0 | 0.00 | 0.00 | 0.00 | 74 | 1003.0 |
| 20260506214526 | 59 | 199 | 1.0 | 3.0 | 0.00 | 0.00 | 0.00 | 74 | 1003.1 |
| 20260506213534 | 60 | 0.0 | 0.0 | 0.00 | 0.00 | 0.00 | 73 | 1003.1 | |
| 20260506212542 | 60 | 214 | 0.0 | 1.0 | 0.00 | 0.00 | 0.00 | 72 | 1003.1 |
| 20260506211550 | 60 | 259 | 0.0 | 2.0 | 0.00 | 0.00 | 0.00 | 72 | 1003.0 |
| 20260506210557 | 60 | 194 | 1.0 | 2.0 | 0.00 | 0.00 | 0.00 | 72 | 1003.0 |
| 20260506205606 | 60 | 206 | 2.0 | 3.0 | 0.00 | 0.00 | 0.00 | 72 | 1002.8 |
| 20260506204613 | 60 | 190 | 2.0 | 5.0 | 0.00 | 0.00 | 0.00 | 72 | 1002.7 |
| 20260506203515 | 61 | 270 | 0.0 | 1.0 | 0.00 | 0.00 | 0.00 | 71 | 1002.8 |
| 20260506202523 | 61 | 270 | 0.0 | 2.0 | 0.00 | 0.00 | 0.00 | 71 | 1002.7 |
| 20260506201531 | 60 | 180 | 2.0 | 3.0 | 0.00 | 0.00 | 0.00 | 72 | 1002.7 |
| 20260506200538 | 59 | 270 | 0.0 | 1.0 | 0.00 | 0.00 | 0.00 | 73 | 1002.8 |
| 20260506195547 | 59 | 180 | 0.0 | 2.0 | 0.00 | 0.00 | 0.00 | 72 | 1002.6 |
| 20260506194554 | 59 | 251 | 0.0 | 2.0 | 0.00 | 0.00 | 0.00 | 72 | 1002.7 |
| 20260506193602 | 59 | 251 | 0.0 | 4.0 | 0.00 | 0.00 | 0.00 | 71 | 1002.6 |
| 20260506192610 | 59 | 324 | 0.0 | 1.0 | 0.00 | 0.00 | 0.00 | 70 | 1002.5 |
| 20260506191618 | 60 | 0.0 | 0.0 | 0.00 | 0.00 | 0.00 | 68 | 1002.3 | |
| 20260506190521 | 61 | 4 | 1.0 | 2.0 | 0.00 | 0.00 | 0.00 | 66 | 1002.0 |
| 20260506185529 | 61 | 0.0 | 0.0 | 0.00 | 0.00 | 0.00 | 63 | 1001.8 | |
| 20260506184537 | 63 | 242 | 0.0 | 1.0 | 0.00 | 0.00 | 0.00 | 61 | 1001.8 |
| 20260506183544 | 63 | 213 | 2.0 | 5.0 | 0.00 | 0.00 | 0.00 | 58 | 1001.8 |
| 20260506182552 | 64 | 198 | 4.0 | 9.0 | 0.00 | 0.00 | 0.00 | 57 | 1001.7 |
| 20260506181600 | 64 | 197 | 3.0 | 6.0 | 0.00 | 0.00 | 0.00 | 57 | 1001.7 |
| 20260506180607 | 64 | 180 | 6.0 | 8.0 | 0.00 | 0.00 | 0.00 | 56 | 1001.6 |
| 20260506175615 | 65 | 187 | 3.0 | 9.0 | 0.00 | 0.00 | 0.00 | 55 | 1001.5 |
| 20260506174517 | 65 | 180 | 7.0 | 12.0 | 0.00 | 0.00 | 0.00 | 55 | 1001.3 |
| 20260506173527 | 65 | 223 | 3.0 | 6.0 | 0.00 | 0.00 | 0.00 | 56 | 1001.3 |
| 20260506172533 | 65 | 193 | 7.0 | 11.0 | 0.00 | 0.00 | 0.00 | 56 | 1001.4 |
| 20260506171542 | 65 | 206 | 2.0 | 6.0 | 0.00 | 0.00 | 0.00 | 59 | 1001.3 |
| 20260506170549 | 66 | 196 | 2.0 | 5.0 | 0.00 | 0.00 | 0.00 | 58 | 1001.2 |
| 20260506165557 | 66 | 180 | 5.0 | 8.0 | 0.00 | 0.00 | 0.00 | 58 | 1001.2 |
| 20260506164605 | 66 | 197 | 4.0 | 7.0 | 0.00 | 0.00 | 0.00 | 58 | 1001.5 |
| 20260506163613 | 66 | 180 | 3.0 | 6.0 | 0.00 | 0.00 | 0.00 | 58 | 1001.5 |
| 20260506162515 | 66 | 192 | 6.0 | 9.0 | 0.00 | 0.00 | 0.00 | 57 | 1001.7 |
| 20260506161523 | 66 | 225 | 5.0 | 11.0 | 0.00 | 0.00 | 0.00 | 58 | 1001.8 |
| 20260506160531 | 66 | 225 | 8.0 | 10.0 | 0.00 | 0.00 | 0.00 | 57 | 1001.9 |
| 20260506155539 | 66 | 233 | 1.0 | 4.0 | 0.00 | 0.00 | 0.00 | 59 | 1001.8 |
| 20260506154547 | 66 | 215 | 3.0 | 7.0 | 0.00 | 0.00 | 0.00 | 59 | 1001.9 |
| 20260506153555 | 66 | 231 | 3.0 | 8.0 | 0.00 | 0.00 | 0.00 | 58 | 1001.9 |
| 20260506152602 | 66 | 211 | 5.0 | 12.0 | 0.00 | 0.00 | 0.00 | 58 | 1001.9 |
| 20260506151610 | 66 | 189 | 8.0 | 12.0 | 0.00 | 0.00 | 0.00 | 57 | 1001.9 |
| 20260506150618 | 66 | 129 | 6.0 | 9.0 | 0.00 | 0.00 | 0.00 | 56 | 1001.9 |
| 20260506145520 | 66 | 169 | 3.0 | 9.0 | 0.00 | 0.00 | 0.00 | 55 | 1002.0 |
| 20260506144529 | 67 | 222 | 6.0 | 9.0 | 0.00 | 0.00 | 0.00 | 54 | 1002.0 |
| 20260506143536 | 68 | 171 | 5.0 | 12.0 | 0.00 | 0.00 | 0.00 | 53 | 1002.0 |
| 20260506142544 | 70 | 206 | 8.0 | 12.0 | 0.00 | 0.00 | 0.00 | 51 | 1002.0 |
| 20260506141552 | 69 | 231 | 6.0 | 11.0 | 0.00 | 0.00 | 0.00 | 53 | 1001.9 |
| 20260506140600 | 68 | 180 | 6.0 | 10.0 | 0.00 | 0.00 | 0.00 | 53 | 1002.0 |
| 20260506135607 | 69 | 203 | 6.0 | 12.0 | 0.00 | 0.00 | 0.00 | 52 | 1002.0 |
| 20260506134615 | 69 | 191 | 6.0 | 12.0 | 0.00 | 0.00 | 0.00 | 52 | 1002.1 |
| 20260506133518 | 69 | 207 | 7.0 | 15.0 | 0.00 | 0.00 | 0.00 | 52 | 1002.0 |
| 20260506132525 | 70 | 187 | 6.0 | 9.0 | 0.00 | 0.00 | 0.00 | 51 | 1001.9 |
| 20260506131534 | 71 | 178 | 7.0 | 12.0 | 0.00 | 0.00 | 0.00 | 50 | 1002.0 |
| 20260506130541 | 71 | 200 | 7.0 | 12.0 | 0.00 | 0.00 | 0.00 | 50 | 1002.0 |
| 20260506125549 | 70 | 203 | 5.0 | 17.0 | 0.00 | 0.00 | 0.00 | 50 | 1002.1 |
| 20260506124557 | 70 | 186 | 6.0 | 12.0 | 0.00 | 0.00 | 0.00 | 48 | 1002.2 |
| 20260506123605 | 71 | 189 | 8.0 | 15.0 | 0.00 | 0.00 | 0.00 | 47 | 1002.1 |
| 20260506122613 | 69 | 204 | 2.0 | 6.0 | 0.00 | 0.00 | 0.00 | 51 | 1002.2 |
| 20260506121620 | 68 | 207 | 7.0 | 14.0 | 0.00 | 0.00 | 0.00 | 51 | 1002.3 |
| 20260506120522 | 68 | 180 | 7.0 | 9.0 | 0.00 | 0.00 | 0.00 | 51 | 1002.3 |
| 20260506115530 | 69 | 185 | 6.0 | 10.0 | 0.00 | 0.00 | 0.00 | 51 | 1002.2 |
| 20260506114538 | 68 | 224 | 5.0 | 8.0 | 0.00 | 0.00 | 0.00 | 51 | 1002.3 |
| 20260506113546 | 69 | 179 | 5.0 | 10.0 | 0.00 | 0.00 | 0.00 | 50 | 1002.5 |
| 20260506112554 | 71 | 203 | 7.0 | 11.0 | 0.00 | 0.00 | 0.00 | 48 | 1002.6 |
| 20260506111602 | 69 | 294 | 2.0 | 5.0 | 0.00 | 0.00 | 0.00 | 51 | 1002.6 |
| 20260506110610 | 69 | 180 | 6.0 | 9.0 | 0.00 | 0.00 | 0.00 | 51 | 1002.8 |
| 20260506105618 | 69 | 180 | 6.0 | 10.0 | 0.00 | 0.00 | 0.00 | 50 | 1002.9 |
| 20260506104520 | 69 | 201 | 3.0 | 6.0 | 0.00 | 0.00 | 0.00 | 51 | 1003.0 |
| 20260506103528 | 68 | 183 | 4.0 | 9.0 | 0.00 | 0.00 | 0.00 | 51 | 1003.2 |
| 20260506102536 | 68 | 193 | 3.0 | 6.0 | 0.00 | 0.00 | 0.00 | 52 | 1003.3 |
| 20260506101543 | 67 | 243 | 2.0 | 9.0 | 0.00 | 0.00 | 0.00 | 52 | 1003.5 |
| 20260506100552 | 67 | 180 | 6.0 | 8.0 | 0.00 | 0.00 | 0.00 | 53 | 1003.4 |
| 20260506095600 | 67 | 204 | 5.0 | 10.0 | 0.00 | 0.00 | 0.00 | 52 | 1003.4 |
| 20260506094608 | 67 | 196 | 6.0 | 9.0 | 0.00 | 0.00 | 0.00 | 52 | 1003.4 |
| 20260506093615 | 67 | 166 | 6.0 | 10.0 | 0.00 | 0.00 | 0.00 | 51 | 1003.3 |
| 20260506092517 | 68 | 180 | 10.0 | 15.0 | 0.00 | 0.00 | 0.00 | 51 | 1003.2 |
| 20260506091525 | 69 | 165 | 9.0 | 17.0 | 0.00 | 0.00 | 0.00 | 49 | 1003.1 |
| 20260506090533 | 70 | 168 | 5.0 | 8.0 | 0.00 | 0.00 | 0.00 | 48 | 1002.9 |
| 20260506085541 | 68 | 191 | 7.0 | 15.0 | 0.00 | 0.00 | 0.00 | 48 | 1003.1 |
| 20260506084549 | 70 | 185 | 11.0 | 18.0 | 0.00 | 0.00 | 0.00 | 46 | 1003.0 |
| 20260506083556 | 69 | 166 | 6.0 | 10.0 | 0.00 | 0.00 | 0.00 | 45 | 1002.8 |
| 20260506082604 | 70 | 204 | 4.0 | 11.0 | 0.00 | 0.00 | 0.00 | 42 | 1003.0 |
| 20260506081613 | 70 | 188 | 5.0 | 12.0 | 0.00 | 0.00 | 0.00 | 42 | 1002.9 |
| 20260506080620 | 69 | 202 | 12.0 | 16.0 | 0.00 | 0.00 | 0.00 | 44 | 1003.0 |